Flag for China Weather past 2 weeks in Chongqing, Chongqing Municipality, China

Now
73 °F

Scattered clouds.


Feels Like: 76 °F
Forecast: 62 / 83 °F
Wind: 1 mph from North

Location: Chongqing Airport

Current Time: Oct 21, 2014 at 2:40:36 PM

Latest Report: Oct 21, 2014 at 2:00 PM


Visibility: N/A

Pressure: 30.18 "Hg

Humidity: 61%

Dew point: 59 °F

Location of ChongqingLocation

Historic Weather in Chongqing — Graph

°F

Chongqing temperature yesterday

Maximum temperature yesterday: 70 °F (at 3:00 PM)
Minimum temperature yesterday: 61 °F (at 7:00 AM)
Average temperature yesterday: 65 °F

Past Weeks' High & Low Weather Summary

 TemperatureHumidityPressure
High82 °F (Oct 6, 3:00 PM)100% (Oct 17, 6:00 AM)30.36 "Hg (Oct 17, 6:00 AM)
Low57 °F (Oct 13, 4:00 PM)34% (Oct 7, 5:00 PM)29.83 "Hg (Oct 9, 5:00 PM)
Average66 °F73%30.09 "Hg
* Reported Oct 6 1:00 PM — Oct 21 1:00 PM, Chongqing, Weather by CustomWeather, © 2014

Note: Actual official high and low records may vary slightly from our data, if they occured in-between our weather recording intervals... More about our weather records

Advertising

Chongqing weather history for previous 24 hours

 ConditionsComfort  
Time TempWeatherWind HumidityBarometerVisibility
1:00 PM
Oct 21
75 °FPassing clouds.1 mph65%30.21 "Hg4 mi
12:00 PM72 °FFog.1 mph69%30.24 "Hg3 mi
11:00 AM70 °FFog.1 mph73%30.24 "Hg3 mi
10:00 AM64 °FFog.1 mph88%30.24 "Hg3 mi
9:00 AM63 °FFog.1 mph94%30.24 "Hg1 mi
8:00 AM63 °FFog.1 mph94%30.21 "Hg1 mi
7:00 AM61 °FFog.1 mph94%30.18 "Hg0 mi
6:00 AM61 °FFog.1 mph94%30.15 "Hg0 mi
5:00 AM63 °FFog.No wind94%30.12 "Hg0 mi
4:00 AM63 °FFog.1 mph94%30.12 "Hg0 mi
3:00 AM61 °FFog.1 mph94%30.12 "Hg1 mi
2:00 AM63 °FFog.1 mph88%30.12 "Hg1 mi
1:00 AM63 °FFog.1 mph94%30.12 "Hg1 mi
12:00 AM64 °FFog.3 mph88%30.09 "Hg1 mi
11:00 PM
Oct 20
64 °FFog.3 mph88%30.09 "Hg1 mi
10:00 PM64 °FFog.1 mph88%30.09 "Hg2 mi
9:00 PM64 °FFog.3 mph88%30.07 "Hg2 mi
8:00 PM66 °FFog.1 mph83%30.04 "Hg2 mi
7:00 PM68 °FFog.1 mph78%30.01 "Hg3 mi
6:00 PM68 °FFog.3 mph83%29.98 "Hg2 mi
5:00 PM70 °FFog.3 mph78%29.95 "Hg3 mi
4:00 PM70 °FFog.1 mph73%29.95 "Hg3 mi
3:00 PM70 °FFog.3 mph73%29.95 "Hg2 mi
2:00 PM68 °FFog.3 mph83%29.95 "Hg2 mi
Weather by CustomWeather, © 2014

See weather overviewHow to use our weather pages